When you browse on this site, cookies collect data to enhance your experience and personalize the content and advertising you see.
Visit our Privacy Policy to learn more. By continuing to use the site, you agree to this use of cookies and data.
  • In Latvia
  • List of Countries
  • For 7 days
  • Water Temperature
  • Weather Map
  • Weather Widgets
  • user-avatar
    Login

    Hourly Weather Holhol

    Today, 26 May, Tuesday

    Time Temperature Precipitation Wind Pressure Humidity
    00:00 +32°C° 0 mm 5 mps 712 mmHg 52%
    01:00 +30°C° 0 mm 4 mps 711 mmHg 59%
    02:00 +30°C° 0 mm 3 mps 711 mmHg 66%
    03:00 +29°C° 0 mm 3 mps 710 mmHg 74%
    04:00 +29°C° 0 mm 2 mps 711 mmHg 71%
    05:00 +29°C° 0 mm 2 mps 711 mmHg 69%
    06:00 +29°C° 0 mm 1 mps 711 mmHg 67%
    07:00 +31°C° 0 mm 1 mps 712 mmHg 58%
    08:00 +32°C° 0 mm 1 mps 712 mmHg 49%
    09:00 +34°C° 0 mm 1 mps 713 mmHg 40%
    10:00 +36°C° 0 mm 2 mps 713 mmHg 36%
    11:00 +38°C° 0 mm 3 mps 713 mmHg 33%
    12:00 +40°C° 0 mm 4 mps 712 mmHg 30%
    13:00 +40°C° 0 mm 5 mps 712 mmHg 33%
    14:00 +39°C° 0 mm 6 mps 711 mmHg 36%
    15:00 +39°C° 0 mm 7 mps 710 mmHg 39%
    16:00 +38°C° 0 mm 6 mps 710 mmHg 43%
    17:00 +36°C° 0 mm 5 mps 710 mmHg 46%
    18:00 +34°C° 0 mm 4 mps 710 mmHg 49%
    19:00 +34°C° 0 mm 4 mps 711 mmHg 51%
    20:00 +33°C° 0 mm 4 mps 711 mmHg 53%
    21:00 +33°C° 0 mm 3 mps 712 mmHg 54%
    22:00 +31°C° 0 mm 3 mps 711 mmHg 56%
    23:00 +31°C° 0 mm 2 mps 711 mmHg 58%

    Tomorrow, 27 May, Wednesday

    Time Temperature Precipitation Wind Pressure Humidity
    00:00 +30°C° 0 mm 2 mps 711 mmHg 59%
    01:00 +30°C° 0 mm 2 mps 711 mmHg 60%
    02:00 +30°C° 0 mm 1 mps 711 mmHg 61%
    03:00 +30°C° 0 mm 1 mps 710 mmHg 62%
    04:00 +29°C° 0 mm 1 mps 711 mmHg 63%
    05:00 +29°C° 0 mm 1 mps 711 mmHg 64%
    06:00 +29°C° 0 mm 1 mps 711 mmHg 65%
    07:00 +30°C° 0 mm 1 mps 712 mmHg 58%
    08:00 +32°C° 0 mm 1 mps 713 mmHg 51%
    09:00 +33°C° 0 mm 1 mps 713 mmHg 44%
    10:00 +35°C° 0 mm 2 mps 713 mmHg 42%
    11:00 +36°C° 0 mm 3 mps 713 mmHg 40%
    12:00 +37°C° 0 mm 4 mps 712 mmHg 39%
    13:00 +38°C° 0 mm 4 mps 712 mmHg 38%
    14:00 +39°C° 0 mm 5 mps 711 mmHg 37%
    15:00 +39°C° 0 mm 5 mps 711 mmHg 37%
    16:00 +37°C° 0 mm 5 mps 711 mmHg 41%
    17:00 +36°C° 0 mm 4 mps 710 mmHg 46%
    18:00 +35°C° 0 mm 3 mps 710 mmHg 50%
    19:00 +34°C° 0 mm 3 mps 711 mmHg 53%
    20:00 +33°C° 0 mm 3 mps 711 mmHg 56%
    21:00 +33°C° 0 mm 3 mps 712 mmHg 58%
    22:00 +31°C° 0 mm 2 mps 712 mmHg 59%
    23:00 +31°C° 0 mm 2 mps 711 mmHg 60%

    Day after tomorrow, 28 May, Thursday

    Time Temperature Precipitation Wind Pressure Humidity
    00:00 +31°C° 0 mm 2 mps 711 mmHg 61%
    01:00 +31°C° 0 mm 1 mps 711 mmHg 60%
    02:00 +30°C° 0 mm 1 mps 711 mmHg 60%
    03:00 +30°C° 0 mm 1 mps 710 mmHg 60%
    04:00 +30°C° 0 mm 1 mps 711 mmHg 58%
    05:00 +28°C° 0 mm 0 mps 711 mmHg 56%
    06:00 +28°C° 0 mm 0 mps 711 mmHg 54%
    07:00 +32°C° 0 mm 1 mps 712 mmHg 49%
    08:00 +33°C° 0 mm 1 mps 712 mmHg 45%
    09:00 +35°C° 0 mm 2 mps 713 mmHg 40%
    10:00 +37°C° 0 mm 3 mps 713 mmHg 38%
    11:00 +38°C° 0 mm 3 mps 712 mmHg 36%
    12:00 +40°C° 0 mm 4 mps 712 mmHg 34%
    13:00 +40°C° 0 mm 5 mps 711 mmHg 34%
    14:00 +40°C° 0 mm 5 mps 710 mmHg 35%
    15:00 +40°C° 0 mm 6 mps 710 mmHg 35%
    16:00 +39°C° 0 mm 5 mps 710 mmHg 38%
    17:00 +37°C° 0 mm 4 mps 710 mmHg 42%
    18:00 +36°C° 0 mm 3 mps 710 mmHg 45%
    19:00 +35°C° 0 mm 3 mps 710 mmHg 49%
    20:00 +34°C° 0 mm 3 mps 711 mmHg 53%
    21:00 +33°C° 0 mm 3 mps 711 mmHg 57%
    22:00 +32°C° 0 mm 2 mps 711 mmHg 58%
    23:00 +32°C° 0 mm 2 mps 711 mmHg 59%

    29 May, Friday

    Time Temperature Precipitation Wind Pressure Humidity
    00:00 +31°C° 0 mm 2 mps 710 mmHg 60%
    01:00 +32°C° 0 mm 1 mps 710 mmHg 58%
    02:00 +32°C° 0 mm 1 mps 710 mmHg 56%
    03:00 +32°C° 0 mm 1 mps 710 mmHg 55%
    04:00 +32°C° 0 mm 1 mps 710 mmHg 56%
    05:00 +31°C° 0 mm 1 mps 711 mmHg 56%
    06:00 +31°C° 0 mm 1 mps 711 mmHg 57%
    07:00 +32°C° 0 mm 1 mps 711 mmHg 54%
    08:00 +33°C° 0 mm 1 mps 712 mmHg 51%
    09:00 +34°C° 0 mm 1 mps 712 mmHg 47%
    10:00 +35°C° 0 mm 1 mps 712 mmHg 41%
    11:00 +38°C° 0 mm 2 mps 712 mmHg 36%
    12:00 +39°C° 0 mm 2 mps 711 mmHg 30%
    13:00 +40°C° 0 mm 3 mps 711 mmHg 28%
    14:00 +42°C° 0 mm 3 mps 710 mmHg 26%
    15:00 +42°C° 0 mm 4 mps 709 mmHg 24%
    16:00 +41°C° 0.1 mm 4 mps 709 mmHg 29%
    17:00 +38°C° 0.1 mm 3 mps 709 mmHg 34%
    18:00 +36°C° 0.1 mm 3 mps 709 mmHg 40%
    19:00 +36°C° 0 mm 3 mps 709 mmHg 42%
    20:00 +35°C° 0 mm 3 mps 709 mmHg 44%
    21:00 +35°C° 0 mm 3 mps 710 mmHg 46%
    22:00 +34°C° 0 mm 2 mps 710 mmHg 47%
    23:00 +33°C° 0 mm 1 mps 710 mmHg 49%

    30 May, Saturday

    Time Temperature Precipitation Wind Pressure Humidity
    00:00 +32°C° 0 mm 1 mps 709 mmHg 51%
    01:00 +32°C° 0 mm 1 mps 709 mmHg 51%
    02:00 +32°C° 0 mm 1 mps 709 mmHg 51%
    03:00 +32°C° 0 mm 2 mps 709 mmHg 50%
    04:00 +31°C° 0 mm 1 mps 709 mmHg 50%
    05:00 +31°C° 0 mm 1 mps 709 mmHg 49%
    06:00 +31°C° 0 mm 1 mps 709 mmHg 49%
    07:00 +34°C° 0 mm 2 mps 710 mmHg 41%
    08:00 +36°C° 0 mm 2 mps 711 mmHg 33%
    09:00 +38°C° 0 mm 3 mps 711 mmHg 25%
    10:00 +39°C° 0 mm 3 mps 711 mmHg 23%
    11:00 +41°C° 0 mm 4 mps 711 mmHg 20%
    12:00 +42°C° 0 mm 4 mps 711 mmHg 17%
    13:00 +43°C° 0 mm 4 mps 710 mmHg 18%
    14:00 +43°C° 0 mm 4 mps 709 mmHg 18%
    15:00 +43°C° 0 mm 4 mps 709 mmHg 18%
    16:00 +42°C° 0 mm 4 mps 709 mmHg 22%
    17:00 +40°C° 0 mm 4 mps 709 mmHg 27%
    18:00 +38°C° 0 mm 4 mps 709 mmHg 31%
    19:00 +37°C° 0 mm 3 mps 709 mmHg 35%
    20:00 +36°C° 0 mm 3 mps 709 mmHg 39%
    21:00 +35°C° 0 mm 2 mps 710 mmHg 43%
    22:00 +35°C° 0 mm 2 mps 710 mmHg 45%
    23:00 +34°C° 0 mm 2 mps 710 mmHg 47%

    31 May, Sunday

    Time Temperature Precipitation Wind Pressure Humidity
    00:00 +34°C° 0 mm 2 mps 710 mmHg 49%
    01:00 +32°C° 0 mm 2 mps 710 mmHg 48%
    02:00 +32°C° 0 mm 2 mps 709 mmHg 48%
    03:00 +32°C° 0 mm 2 mps 709 mmHg 47%
    04:00 +32°C° 0 mm 2 mps 709 mmHg 47%
    05:00 +31°C° 0 mm 2 mps 710 mmHg 47%
    06:00 +31°C° 0 mm 2 mps 710 mmHg 47%
    07:00 +32°C° 0 mm 2 mps 711 mmHg 43%
    08:00 +35°C° 0 mm 2 mps 711 mmHg 40%
    09:00 +36°C° 0 mm 3 mps 712 mmHg 37%
    10:00 +37°C° 0 mm 3 mps 712 mmHg 33%
    11:00 +38°C° 0 mm 4 mps 712 mmHg 29%
    12:00 +41°C° 0 mm 4 mps 712 mmHg 26%
    13:00 +41°C° 0 mm 5 mps 711 mmHg 25%
    14:00 +41°C° 0 mm 5 mps 710 mmHg 25%
    15:00 +42°C° 0 mm 5 mps 710 mmHg 25%
    16:00 +40°C° 0 mm 5 mps 710 mmHg 31%
    17:00 +38°C° 0 mm 6 mps 710 mmHg 38%
    18:00 +36°C° 0 mm 6 mps 710 mmHg 44%
    19:00 +35°C° 0 mm 5 mps 710 mmHg 50%
    20:00 +34°C° 0 mm 5 mps 710 mmHg 55%
    21:00 +33°C° 0 mm 5 mps 711 mmHg 61%
    22:00 +32°C° 0 mm 4 mps 711 mmHg 60%
    23:00 +32°C° 0 mm 4 mps 711 mmHg 59%
    Show more